Vertical_Velocity
-2 -3 -6 -2 -6 -4 -3 3 2 -5 5 -5 -5 -3 0 7 -0 -8 1 -3 0 -1 -3 -4 -1 1 9 3 -2 -3 -3 -3 0 1 1 1 -1 1 1 -0 1 -3 -1 0 2 0 -1 -0 -2
1 -1 -2 -5 -8 -1 -5 -5 -4 -1 2 -4 -11 -8 2 5 -2 0 1 0 1 -0 -2 -1 0 -0 3 7 3 5 -4 -2 -1 -0 -1 1 -1 -0 1 1 2 -2 -1 0 -1 1 0 -2 2
-1 -2 -1 -1 -2 -8 -6 -3 -6 -8 -0 7 -6 -11 -6 2 -2 4 3 -4 5 1 -1 -0 -1 0 5 6 2 -0 3 -1 -2 -1 0 -1 2 -1 -0 1 0 2 -2 -3 -0 0 0 0 -1
-3 -2 -1 -1 -1 2 -0 -6 -1 3 -4 -3 7 -9 -6 -3 -1 1 7 -5 3 0 3 1 2 -7 -2 4 0 3 2 1 1 -1 -1 0 0 0 -0 1 1 0 1 0 -2 -0 0 1 -0
-2 0 -1 -0 -3 2 -3 -2 0 -1 0 -9 -15 9 -3 -5 -11 1 4 4 -2 5 2 0 0 1 -1 5 0 4 3 0 0 1 0 0 -1 2 -2 0 1 1 1 2 1 -1 1 -1 1
-3 -1 -1 -1 -1 -4 -4 -5 -5 -2 5 -0 -11 -23 6 -8 -1 -1 3 5 1 -2 6 -1 -1 5 -2 2 6 -2 5 3 1 0 1 -1 -0 0 -2 -0 2 0 1 2 2 1 0 -1 0
-2 -1 -2 -2 -3 -5 -3 -8 -10 -3 4 -4 -6 -1 -8 -5 -5 -4 -1 2 3 -4 3 3 1 1 4 2 -8 2 -8 3 3 2 1 -0 -2 -2 -0 -1 2 1 0 -0 2 2 1 1 -1
-6 -6 -5 1 -3 -6 -2 -8 -6 -6 7 -5 -12 -8 -3 -6 -9 -2 -1 1 6 1 1 2 -3 3 2 5 -9 -0 2 -2 3 2 3 -0 2 -1 -3 0 1 2 0 1 -2 2 2 2 2
-3 -6 -4 -3 -0 -4 -7 1 -4 -9 -12 -6 -3 -10 -4 -3 -7 -0 5 1 -2 3 7 -1 -3 1 1 -18 -23 34 -4 15 2 -1 3 1 0 0 -2 -0 0 1 0 1 -1 -1 0 1 1
-6 -3 -5 -2 1 -4 -6 -3 -1 10 -0 -4 -7 -14 -5 -6 0 1 5 5 -1 -2 2 -1 -2 -0 3 -5 -1 32 -2 -3 -1 3 1 1 1 3 2 -5 1 1 0 -0 1 1 -1 0 -1
-0 -2 -5 -3 0 -4 -10 4 -9 -13 -5 -10 2 -3 -6 -7 -5 3 -3 6 -3 -2 3 5 -2 3 1 -7 7 10 -4 2 8 9 3 -3 0 0 2 -2 -4 1 3 0 3 3 -0 -0 -1
-8 -4 -5 -5 -3 0 -20 -7 3 -12 -2 -6 -4 -8 -8 -9 -4 3 3 2 -1 4 2 2 3 5 3 0 0 -3 56 -2 5 -7 -7 -1 0 -1 -1 3 0 -4 0 0 -1 0 0 2 1
-8 -6 -5 -7 -7 5 -15 -14 2 2 -2 -5 -7 -3 -5 -5 -1 2 -1 -2 -1 2 0 4 4 8 4 -1 -2 2 17 67 -4 -1 7 5 3 2 0 -0 4 -0 -3 -2 -2 0 0 2 0
-2 -3 -6 -7 -7 1 -4 -14 -5 -7 -4 -6 -8 -4 -5 -4 -2 4 2 -1 2 0 4 4 6 3 9 2 2 4 -1 12 54 12 -2 -14 -2 1 4 -1 2 3 -0 -4 -3 -2 -0 0 -1
-1 -7 -9 -7 -5 1 -0 -17 -18 -9 -3 -0 -3 -7 -6 -7 -4 2 -1 1 1 -1 5 7 4 3 7 1 5 5 -3 13 -2 2 3 -2 -0 1 3 3 0 1 1 -1 -3 -2 -2 0 2
-5 4 -4 -7 -6 -7 -1 -1 -3 -2 -3 -4 -6 -6 -2 -4 -5 -4 3 -6 -3 -0 -8 1 4 6 4 5 6 1 -1 -4 -2 31 30 1 -2 -9 -4 1 3 -0 -2 0 0 -2 -2 -2 -1
-2 -4 -2 -6 -1 -3 -14 4 -0 -3 -7 -4 -4 -5 -4 -3 -3 -5 -3 -3 -7 -4 -3 -8 -3 2 3 8 3 0 9 -2 -4 1 4 83 19 8 -1 2 0 3 -4 1 -1 -1 -1 -2 -1
-4 1 -3 -6 1 1 -9 -7 -13 -1 1 1 -4 -1 -5 -2 -4 -4 -4 -2 -3 -2 -1 3 -4 3 0 0 -2 -2 3 19 -7 1 20 20 41 6 1 2 -0 -1 -1 -1 2 0 -2 -2 -2
-3 -4 -0 -7 -14 6 4 -6 -11 -0 -3 -3 -4 -2 -3 -5 -2 -2 -3 -3 -3 -5 1 -3 -5 -3 1 4 -3 1 1 4 1 13 -12 7 31 30 -3 -13 1 -2 0 7 -0 -2 -1 1 0
-2 -0 -7 4 -7 -7 -0 3 -15 -4 -10 -5 -2 -2 -2 -2 -5 -2 -1 -1 -3 -5 -3 -3 -5 -4 -0 -4 -10 -1 2 8 -0 7 9 -16 15 9 1 3 2 4 -3 -5 0 -0 -3 2 -3
-3 -4 -4 -9 5 -0 -13 26 -8 0 3 -3 -5 -5 -2 -2 -5 -6 -2 -2 -2 -4 -4 -5 -3 -4 -8 -4 4 -3 -0 -3 10 -7 13 -11 12 12 15 4 14 3 -2 5 6 -1 5 1 -1
1 -4 -3 -6 -11 -8 -10 -20 -1 -3 -4 -5 -4 -5 -4 -5 -4 -4 -5 -3 -1 -4 -6 -5 -3 -3 -7 -6 4 0 -1 -3 -1 9 19 4 5 9 6 -0 13 38 4 -3 7 3 1 -9 4
-5 -1 -2 -2 -2 -1 -1 -17 -7 -3 -4 -5 -6 -4 -3 -3 -4 -5 -7 -2 -6 -1 -7 -4 -2 -6 -0 -7 -7 0 0 3 -3 6 1 0 6 1 8 7 4 7 35 4 3 1 -4 7 -7
-4 -6 -5 -5 -1 -1 0 -4 22 -8 -5 -5 -6 -4 -3 -5 -5 -4 -4 -7 -2 -4 -2 -7 -3 -8 -5 0 -12 -5 1 0 8 0 7 -4 0 1 13 16 5 2 110 2 4 5 2 1 7
-2 -6 -7 -17 -15 -4 -0 -6 11 -10 -8 -4 -7 -11 -6 -2 -4 -4 -3 -5 -6 -3 -3 -3 -5 -5 -7 -3 -4 -4 4 4 6 0 1 2 7 3 18 16 17 7 -1 37 32 -4 0 4 2
1 -2 -1 -20 -8 -1 -3 -3 3 -5 -7 -1 -3 -4 -4 -7 -3 -4 -3 -3 -7 -3 -6 -1 -5 -4 -12 -3 -2 -0 -6 -1 5 2 5 -0 5 -1 14 8 -5 3 -7 11 7 -5 61 3 -0
-1 1 -4 -8 4 -7 -5 3 14 -7 -7 -0 -1 -2 -8 -3 -2 -2 -6 -4 -3 -7 -3 -6 -1 -4 -5 -6 -2 -5 -6 -8 4 1 1 4 5 3 6 15 13 0 17 10 1 13 -3 30 8
-2 -0 -10 2 -17 -19 -4 -4 7 2 -6 -3 -3 -1 -1 -7 -6 -4 -4 -4 -6 -5 -5 -4 -4 -1 -3 -5 -10 -4 3 -1 0 -0 4 4 6 7 5 -0 13 3 -0 5 -5 2 5 16 2
-0 3 -2 -8 6 -15 -16 11 4 3 -5 -7 -3 -4 -3 -4 -6 -5 -4 -6 -5 -4 -7 -4 -5 -5 -4 -5 -1 -9 -5 -2 -5 -2 -1 4 3 11 -2 7 19 3 -0 1 4 -5 3 8 11
0 -1 -0 -10 2 -4 -5 -2 4 2 -1 -4 -4 -6 -4 -3 -3 -2 -3 -4 -7 -4 -6 -5 -3 -5 -5 -6 -9 0 -10 -6 1 2 4 2 7 22 2 5 -1 4 6 -1 -10 0 5 4 -4
Height
5823 5822 5822 5820 5821 5818 5816 5816 5818 5816 5818 5819 5820 5821 5823 5826 5829 5831 5832 5838 5839 5841 5844 5849 5852 5854 5857 5857 5861 5867 5870 5874 5877 5881 5884 5886 5890 5891 5893 5895 5897 5899 5899 5900 5901 5903 5904 5904 5902
5819 5818 5817 5816 5816 5813 5813 5812 5810 5806 5809 5810 5810 5811 5812 5815 5818 5822 5826 5828 5833 5836 5838 5842 5848 5851 5854 5855 5856 5860 5865 5870 5873 5877 5881 5884 5887 5890 5892 5895 5897 5898 5900 5899 5901 5903 5905 5905 5903
5814 5813 5812 5809 5807 5808 5807 5807 5807 5798 5799 5799 5800 5800 5798 5803 5805 5809 5815 5819 5823 5828 5831 5836 5840 5844 5848 5851 5851 5854 5859 5863 5869 5873 5877 5881 5883 5887 5890 5893 5897 5897 5899 5900 5901 5904 5905 5905 5905
5809 5808 5807 5804 5801 5799 5797 5796 5795 5790 5792 5790 5789 5790 5788 5787 5791 5794 5801 5806 5810 5817 5821 5827 5830 5834 5840 5844 5847 5849 5853 5858 5862 5868 5873 5877 5880 5883 5886 5890 5894 5897 5897 5900 5902 5903 5905 5906 5907
5804 5803 5801 5799 5796 5791 5788 5785 5783 5779 5774 5774 5775 5776 5773 5770 5772 5777 5784 5792 5798 5804 5810 5815 5820 5825 5831 5836 5838 5843 5848 5852 5857 5862 5868 5873 5877 5879 5882 5887 5890 5895 5897 5898 5901 5903 5904 5906 5907
5800 5798 5796 5794 5791 5787 5784 5780 5774 5767 5765 5760 5756 5755 5756 5750 5750 5754 5764 5776 5785 5791 5797 5804 5810 5815 5821 5828 5834 5836 5840 5845 5851 5856 5861 5868 5872 5875 5878 5882 5887 5891 5895 5897 5899 5901 5903 5905 5907
5795 5793 5790 5788 5786 5783 5776 5772 5765 5757 5752 5748 5739 5733 5734 5732 5727 5733 5743 5754 5768 5776 5784 5790 5798 5804 5812 5819 5825 5830 5831 5837 5842 5849 5854 5860 5867 5871 5873 5878 5883 5888 5892 5895 5898 5899 5901 5904 5906
5791 5789 5784 5781 5780 5775 5769 5765 5755 5748 5741 5735 5727 5715 5712 5708 5704 5709 5721 5733 5746 5758 5769 5777 5785 5792 5801 5811 5817 5821 5826 5828 5834 5839 5846 5851 5860 5865 5869 5872 5878 5883 5888 5892 5895 5898 5899 5902 5904
5786 5783 5778 5776 5772 5768 5762 5754 5743 5735 5729 5719 5711 5697 5684 5684 5682 5685 5696 5712 5726 5738 5750 5761 5770 5780 5789 5799 5805 5805 5817 5826 5827 5833 5838 5843 5850 5858 5864 5868 5872 5877 5882 5887 5891 5895 5897 5899 5902
5780 5775 5771 5769 5764 5759 5753 5744 5734 5723 5714 5706 5696 5681 5669 5663 5664 5668 5675 5689 5702 5715 5730 5743 5755 5767 5776 5786 5792 5797 5806 5812 5819 5826 5832 5838 5844 5850 5857 5863 5866 5871 5876 5881 5887 5891 5894 5897 5900
5772 5768 5764 5759 5756 5750 5744 5735 5729 5720 5710 5693 5683 5667 5649 5644 5646 5648 5656 5668 5682 5697 5711 5726 5740 5750 5762 5772 5778 5786 5791 5801 5811 5817 5823 5831 5838 5844 5850 5854 5862 5867 5871 5876 5882 5885 5889 5893 5897
5765 5760 5755 5750 5745 5739 5733 5723 5715 5704 5697 5684 5669 5656 5643 5633 5633 5637 5646 5653 5664 5680 5693 5708 5725 5736 5747 5760 5766 5772 5774 5790 5799 5804 5812 5821 5829 5838 5843 5849 5857 5864 5867 5870 5874 5880 5885 5889 5892
5758 5752 5747 5741 5737 5730 5723 5713 5705 5694 5684 5671 5658 5642 5633 5623 5625 5630 5637 5643 5651 5665 5679 5691 5708 5721 5733 5744 5754 5766 5772 5775 5786 5793 5804 5810 5820 5827 5836 5843 5850 5857 5863 5864 5868 5875 5880 5884 5888
5750 5744 5739 5732 5727 5720 5711 5702 5693 5685 5673 5662 5649 5635 5623 5617 5617 5620 5626 5633 5641 5652 5664 5676 5691 5704 5718 5729 5740 5752 5760 5768 5768 5781 5792 5798 5809 5817 5824 5834 5843 5849 5854 5859 5863 5867 5873 5878 5883
5741 5736 5730 5723 5717 5710 5703 5693 5683 5675 5663 5654 5642 5629 5618 5609 5608 5611 5614 5620 5628 5640 5651 5658 5671 5686 5701 5713 5726 5738 5746 5756 5763 5770 5781 5790 5798 5805 5814 5823 5833 5841 5845 5849 5856 5861 5867 5873 5878
5733 5729 5723 5716 5709 5701 5695 5686 5673 5665 5655 5646 5635 5625 5614 5603 5600 5602 5604 5608 5614 5624 5636 5646 5655 5668 5682 5697 5710 5722 5732 5742 5752 5757 5765 5778 5787 5792 5803 5812 5821 5831 5837 5841 5846 5853 5860 5866 5871
5725 5720 5714 5707 5700 5693 5686 5679 5667 5659 5648 5639 5629 5621 5612 5601 5593 5593 5595 5599 5602 5611 5623 5633 5642 5653 5666 5681 5693 5706 5718 5730 5740 5749 5757 5756 5769 5783 5792 5801 5809 5819 5827 5832 5838 5843 5849 5856 5863
5716 5713 5707 5699 5692 5684 5676 5668 5658 5651 5642 5633 5624 5614 5605 5596 5588 5584 5585 5589 5595 5602 5609 5620 5628 5638 5651 5664 5677 5689 5702 5712 5725 5735 5742 5751 5762 5770 5782 5791 5798 5806 5815 5822 5828 5834 5839 5845 5852
5707 5702 5697 5691 5683 5677 5669 5662 5651 5643 5636 5627 5617 5607 5599 5592 5585 5578 5575 5577 5583 5590 5600 5606 5613 5621 5635 5647 5661 5675 5686 5700 5709 5721 5730 5740 5746 5751 5763 5776 5787 5794 5803 5814 5821 5825 5831 5837 5843
5699 5693 5688 5684 5677 5669 5660 5654 5644 5636 5628 5620 5610 5601 5593 5587 5581 5574 5569 5568 5571 5578 5585 5593 5601 5609 5620 5631 5646 5660 5670 5685 5698 5705 5717 5728 5736 5744 5751 5760 5776 5784 5792 5800 5809 5817 5822 5828 5835
5690 5683 5678 5673 5668 5662 5652 5647 5637 5628 5619 5612 5604 5595 5586 5580 5575 5570 5564 5562 5561 5567 5573 5580 5586 5595 5606 5617 5629 5643 5659 5671 5682 5693 5702 5715 5724 5734 5739 5749 5761 5771 5780 5789 5801 5809 5815 5822 5828
5682 5675 5667 5662 5656 5651 5644 5636 5629 5620 5614 5606 5597 5590 5581 5573 5567 5564 5559 5554 5553 5554 5559 5566 5573 5580 5591 5601 5613 5626 5639 5653 5666 5679 5690 5698 5710 5721 5730 5736 5746 5754 5766 5774 5788 5797 5805 5811 5818
5672 5665 5658 5652 5645 5641 5636 5629 5621 5613 5604 5596 5589 5582 5574 5567 5560 5556 5554 5548 5543 5542 5545 5551 5556 5564 5571 5586 5595 5608 5623 5636 5651 5665 5676 5690 5698 5710 5720 5728 5733 5742 5755 5762 5774 5785 5793 5801 5808
5660 5654 5647 5641 5635 5629 5624 5618 5612 5602 5594 5587 5581 5574 5567 5559 5553 5548 5545 5543 5537 5532 5531 5536 5542 5547 5553 5566 5579 5589 5606 5620 5634 5649 5662 5672 5686 5697 5706 5715 5720 5733 5737 5753 5761 5772 5781 5790 5797
5650 5644 5634 5629 5623 5618 5612 5607 5601 5591 5583 5578 5572 5564 5558 5552 5545 5540 5535 5531 5529 5523 5520 5520 5524 5530 5537 5548 5562 5576 5585 5598 5614 5629 5642 5657 5672 5682 5692 5701 5711 5721 5730 5734 5751 5759 5768 5779 5786
5640 5634 5628 5614 5611 5608 5600 5596 5593 5583 5574 5568 5563 5555 5550 5544 5537 5531 5525 5521 5516 5512 5509 5507 5509 5513 5522 5529 5542 5556 5569 5579 5596 5610 5626 5641 5657 5668 5676 5690 5699 5710 5717 5725 5735 5739 5747 5766 5775
5627 5624 5618 5607 5601 5595 5591 5584 5581 5569 5563 5556 5553 5548 5541 5536 5528 5520 5514 5510 5505 5500 5496 5495 5495 5496 5502 5511 5522 5535 5551 5564 5578 5593 5609 5625 5640 5653 5661 5676 5686 5694 5703 5713 5720 5731 5741 5751 5762
5617 5612 5606 5597 5585 5580 5578 5570 5571 5558 5552 5545 5542 5537 5532 5525 5519 5511 5504 5498 5493 5488 5483 5480 5481 5483 5485 5493 5503 5514 5529 5545 5560 5576 5592 5607 5622 5636 5648 5661 5673 5681 5689 5698 5709 5720 5729 5736 5749
5605 5600 5594 5588 5578 5568 5560 5560 5561 5545 5540 5533 5531 5525 5520 5514 5507 5500 5493 5487 5482 5477 5472 5466 5466 5467 5469 5473 5485 5495 5507 5523 5543 5560 5573 5588 5605 5619 5633 5647 5660 5671 5679 5687 5699 5708 5717 5727 5736
5592 5587 5581 5575 5566 5557 5553 5550 5548 5535 5529 5521 5518 5511 5507 5502 5496 5488 5483 5476 5470 5466 5461 5456 5453 5453 5453 5455 5460 5475 5486 5500 5520 5540 5555 5570 5590 5605 5617 5631 5646 5658 5665 5676 5687 5696 5706 5716 5726